Ischgl, Austria 16 day weather forecast

Slopes altitude range 1400 m - 2870m

Number of lifts: 40 Pistes: 215km

In some cases the lift and piste totals shown are for the ski domain (e.g. Three Valleys) rather than individual resort (e.g. Courchevel)

Overview

The 16 day weather forecast is fully updated 4 times every day.

    • Thu 21 FEB 2019
    • Thu 21
    • -5C 1C
    • Fri 22 FEB 2019
    • Fri 22
    • -4C -1C
    • Sat 23 FEB 2019
    • Sat 23
    • -7C 1C
    • Sun 24 FEB 2019
    • Sun 24
    • -4C 2C
    • Mon 25 FEB 2019
    • Mon 25
    • -4C 4C
    • Tue 26 FEB 2019
    • Tue 26
    • -3C 4C
    • Wed 27 FEB 2019
    • Wed 27
    • -1C 7C
    • Thu 28 FEB 2019
    • Thu 28
    • 0C 6C
    • Fri 01 MAR 2019
    • Fri 01
    • -6C 1C
    • Sat 02 MAR 2019
    • Sat 02
    • -6C 1C
    • Sun 03 MAR 2019
    • Sun 03
    • -7C -4C
    • Mon 04 MAR 2019
    • Mon 04
    • -5C 4C
    • Tue 05 MAR 2019
    • Tue 05
    • -2C 0C
    • Wed 06 MAR 2019
    • Wed 06
    • -4C -2C
    • Thu 07 MAR 2019
    • Thu 07
    • -10C -7C
    • Fri 08 MAR 2019
    • Fri 08
    • -14C -12C

Date:

Time Type 0°C level Temp Chill Snow Cloud Speed Gust Dir Press
18:00 1225m 1°C 1_3 0cm 31% 3mph 4mph 1030mB
21:00 989m -7°C -7_3 0cm 9% 3mph 4mph 1031mB
0:00 1032m -7°C -7_3 0cm 18% 3mph 4mph 1032mB
3:00 1064m -7°C -7_3 0cm 30% 3mph 4mph 1032mB
6:00 1361m -7°C -7_4 0cm 49% 4mph 5mph 1032mB
9:00 1887m -4°C -4_6 0cm 70% 6mph 8mph 1031mB
12:00 1908m -1°C -1_7 1cm 80% 7mph 9mph 1030mB
15:00 1815m -1°C -1_8 0cm 36% 8mph 10mph 1030mB
18:00 1167m -1°C -1_5 0cm 41% 5mph 6mph 1033mB
21:00 701m -9°C -9_3 0cm 11% 3mph 4mph 1035mB
0:00 719m -9°C -9_3 0cm 6% 3mph 4mph 1035mB
3:00 824m -9°C -9_3 0cm 0% 3mph 4mph 1034mB
6:00 919m -9°C -9_4 0cm 0% 4mph 5mph 1035mB
9:00 2164m -7°C -7_5 0cm 0% 5mph 7mph 1034mB
12:00 2133m 1°C 1_7 0cm 0% 7mph 10mph 1033mB
15:00 2347m 1°C 1_4 0cm 32% 4mph 5mph 1032mB
18:00 1304m 1°C 1_4 0cm 24% 4mph 4mph 1035mB
21:00 1348m -5°C -5_3 0cm 0% 3mph 4mph 1036mB
0:00 1401m -5°C -5_3 0cm 0% 3mph 4mph 1036mB
3:00 1408m -4°C -4_3 0cm 0% 3mph 4mph 1035mB
6:00 1431m -4°C -4_4 0cm 0% 4mph 5mph 1036mB
9:00 2642m -4°C -4_5 0cm 11% 5mph 6mph 1035mB
12:00 2583m 2°C 2_7 0cm 15% 7mph 10mph 1034mB
15:00 2636m 2°C 2_5 0cm 0% 5mph 7mph 1033mB
18:00 1635m 2°C 2_5 0cm 0% 5mph 6mph 1035mB
21:00 1570m -3°C -3_5 0cm 0% 5mph 6mph 1037mB
0:00 1509m -4°C -4_4 0cm 0% 4mph 5mph 1037mB
3:00 1478m -4°C -4_4 0cm 0% 4mph 5mph 1037mB
6:00 1494m -4°C -4_4 0cm 4% 4mph 5mph 1037mB
9:00 2623m -4°C -4_4 0cm 17% 4mph 5mph 1037mB
12:00 2701m 4°C 4_4 0cm 9% 4mph 5mph 1035mB
15:00 2720m 4°C 4_3 0cm 0% 3mph 4mph 1034mB
18:00 1829m 4°C 4_4 0cm 0% 4mph 4mph 1035mB
21:00 1709m -2°C -2_2 0cm 0% 2mph 3mph 1036mB
0:00 1646m -3°C -3_1 0cm 18% 1mph 2mph 1036mB
3:00 1627m -3°C -3_3 0cm 5% 3mph 4mph 1035mB
6:00 1524m -3°C -3_3 0cm 3% 3mph 4mph 1034mB
9:00 3077m -3°C -3_4 0cm 18% 4mph 5mph 1033mB
12:00 3101m 4°C 4_5 0cm 33% 5mph 6mph 1031mB
15:00 3158m 4°C 4_4 0cm 23% 4mph 5mph 1030mB
18:00 1861m 4°C 4_3 0cm 19% 3mph 4mph 1031mB
21:00 1856m -1°C -1_3 0cm 0% 3mph 4mph 1031mB
0:00 1914m -1°C -1_3 0cm 0% 3mph 4mph 1030mB
3:00 2464m -1°C -1_3 0cm 0% 3mph 4mph 1029mB
6:00 2468m -1°C -1_4 0cm 0% 4mph 5mph 1028mB
9:00 3349m -1°C -1_4 0cm 0% 4mph 4mph 1026mB
12:00 3378m 7°C 7_3 0cm 0% 3mph 4mph 1025mB
15:00 3397m 7°C 7_3 0cm 3% 3mph 3mph 1023mB
18:00 3205m 7°C 7_6 0cm 2% 6mph 7mph 1025mB
21:00 3150m 1°C 1_6 0cm 0% 6mph 7mph 1025mB
0:00 2915m 1°C 1_6 0cm 0% 6mph 7mph 1025mB
3:00 2766m 0°C 0_4 0cm 0% 4mph 5mph 1024mB
6:00 2677m 0°C 0_3 0cm 0% 3mph 4mph 1024mB
9:00 3041m 0°C 0_3 0cm 1% 3mph 4mph 1023mB
12:00 3027m 6°C 6_4 0cm 16% 4mph 6mph 1022mB
15:00 2908m 6°C 6_4 0cm 36% 4mph 5mph 1021mB
18:00 1859m 6°C 6_3 0cm 21% 3mph 4mph 1023mB
21:00 1753m -2°C -2_2 0cm 4% 2mph 3mph 1025mB
0:00 1654m -3°C -3_2 0cm 3% 2mph 3mph 1025mB
3:00 1651m -5°C -5_4 0cm 15% 4mph 5mph 1025mB
6:00 1524m -6°C -6_4 0cm 13% 4mph 5mph 1025mB
9:00 2263m -6°C -6_4 0cm 92% 4mph 4mph 1024mB
12:00 2504m 1°C 1_2 0cm 92% 2mph 2mph 1022mB
15:00 2516m 1°C 1_3 0cm 98% 3mph 3mph 1021mB
18:00 1875m 1°C 1_2 0cm 98% 2mph 3mph 1023mB
21:00 1774m -5°C -5_3 0cm 97% 3mph 3mph 1024mB
0:00 1697m -5°C -5_2 0cm 96% 2mph 3mph 1024mB
3:00 1687m -5°C -5_5 0cm 97% 5mph 6mph 1022mB
6:00 1588m -6°C -6_6 0cm 97% 6mph 6mph 1022mB
9:00 2266m -6°C -6_6 0cm 97% 6mph 6mph 1020mB
12:00 2501m 1°C 1_6 0cm 98% 6mph 7mph 1018mB
15:00 2539m 1°C 1_5 0cm 98% 5mph 7mph 1015mB
18:00 1949m 1°C 1_9 0cm 70% 9mph 10mph 1017mB
21:00 1915m -4°C -4_8 0cm 98% 8mph 9mph 1016mB
0:00 1934m -4°C -4_11 0cm 88% 11mph 13mph 1016mB
3:00 1801m -5°C -5_11 3cm 100% 11mph 14mph 1016mB
6:00 1541m -7°C -7_8 3cm 100% 8mph 10mph 1018mB
9:00 1570m -7°C -7_9 1cm 100% 9mph 11mph 1019mB
12:00 1830m -4°C -4_9 1cm 62% 9mph 11mph 1019mB
Morning 0.0885417mm 0 1454m -5°C -5_5 1cm 74% 5mph 6mph 1023mB
Afternoon 0mm 0 2559m 4°C 4_15 0cm 93% 15mph 20mph 1014mB
Morning 0.223958mm 0 1992m -1°C -1_7 2cm 100% 7mph 11mph 1012mB
Afternoon 0.770833mm 0.125 2148m 0°C 0_5 6cm 100% 5mph 7mph 1009mB
Morning 0.494792mm 0.375 1687m -5°C -5_8 4cm 89% 8mph 8mph 1005mB
Afternoon 0.552083mm 0.5 1779m -2°C -2_10 0cm 73% 10mph 13mph 1007mB
Morning 0.0208333mm 0 1059m -8°C -8_10 0cm 96% 10mph 13mph 1014mB
Afternoon 0.104167mm 0.0625 1045m -7°C -7_13 1cm 99% 13mph 15mph 1019mB
Morning 0.229167mm 0.75 197m -13°C -13_11 6cm 100% 11mph 15mph 1029mB
Afternoon 0.317708mm 0.3125 244m -12°C -12_14 3cm 100% 14mph 18mph 1033mB
Morning 0.114583mm 0 0m -21°C -21_4 1cm 90% 4mph 4mph 1039mB
Afternoon 0mm 0 1937m -1°C -1_3 0cm 39% 3mph 4mph 1029mB

16 day outlook at a glance

Forecast issued: 21/02/2019 17:42:29

Chat

Your comments and questions. In a resort? Let us know what it's like!


Characters left 250

For terms and conditions see Readers Comments on the Cookie and privacy policy page.